Find Starlink 11613

NORAD ID: 63136 Int'l Des: 2025-043 Owner: SPXS Country: US Constellation: starlink operational
LEOCIRCULAR

リアルタイム位置

3D地球を読み込み中...

Starlink 11613について

説明を読み込み中...

次回通過

Passes for default location (London). Set your location on the main map for personalized predictions.

高度履歴

Loading altitude history...

軌道要素

1 63136U 25043E 26125.43917112 .00430329 00000-0 31393-2 0 9999
2 63136 42.9985 268.9797 0002306 229.6194 130.4473 15.71196601 68395
Epoch: May 5, 2026 • Age: 13 hours

現在のステータス

高度 354.7 km
速度 7.70 km/s
衛星直下点 -10.40°S, 120.41°W
打ち上げ日 Mar 3, 2025
運用期間 1.1 years
タイプ internet

技術仕様

分類 Payload
質量 960.00 kg
乾燥質量 910.00 kg
総質量 960.00 kg
長さ 0.30 m
直径 4.10 m
スパン 29.00 m
形状 Box + pan
製造者 SPXS
バスタイプ Starlink V2MD
フェーズステータス In Orbit
所有者/国 SPXS/US

Most Searched